EDT,Max TemperatureF,Mean TemperatureF,Min TemperatureF,Max Dew PointF,MeanDew PointF,Min DewpointF,Max Humidity, Mean Humidity, Min Humidity, Max Sea Level PressureIn, Mean Sea Level PressureIn, Min Sea Level PressureIn, Max VisibilityMiles, Mean VisibilityMiles, Min VisibilityMiles, Max Wind SpeedMPH, Mean Wind SpeedMPH, Max Gust SpeedMPH,PrecipitationIn, CloudCover, Events, WindDirDegrees
2013-5-1,66,60,55,57,54,48,100,83,59,30.38,30.30,30.21,10,9,2,9,5,16,0.00,7,,51
2013-5-2,71,61,51,55,52,48,94,76,46,30.41,30.36,30.32,10,10,7,9,3,,0.00,5,,73
2013-5-3,66,57,48,55,48,41,100,75,40,30.35,30.31,30.27,10,9,7,15,3,24,0.00,2,,73
2013-5-4,66,57,48,52,48,45,94,78,52,30.29,30.22,30.18,10,10,3,9,3,18,0.00,5,,55
2013-5-5,66,57,48,54,50,46,93,79,60,30.19,30.15,30.12,10,9,5,7,3,17,0.00,6,,65
2013-5-6,75,65,55,63,59,52,94,85,65,30.13,30.05,29.98,10,8,2,16,5,24,0.08,6,,79
2013-5-7,73,66,59,66,61,57,100,88,73,29.98,29.93,29.87,10,7,2,14,4,23,0.87,6,,107
2013-5-8,71,62,53,63,58,54,100,89,60,30.03,29.98,29.95,10,8,0,9,3,21,0.49,5,,166
2013-5-9,80,68,55,61,58,55,100,76,42,30.04,30.00,29.96,10,9,1,12,5,18,0.00,3,,277
2013-5-10,89,74,60,64,60,57,100,62,33,30.05,30.00,29.93,10,10,10,10,4,18,0.00,1,,200
2013-5-11,84,76,69,64,62,59,78,62,42,29.95,29.85,29.77,10,10,10,15,7,24,0.00,2,,220
2013-5-12,75,65,55,63,55,39,100,70,33,30.04,29.86,29.76,10,9,2,14,4,20,0.16,4,,315
2013-5-13,66,56,46,46,38,34,87,54,32,30.17,30.10,30.04,10,10,10,16,4,22,0.00,4,,324
2013-5-14,69,55,41,46,37,32,81,50,28,30.24,30.17,30.10,10,10,10,13,5,20,0.00,1,,291
2013-5-15,89,74,60,63,54,43,63,50,38,30.11,29.94,29.81,10,10,10,15,9,23,0.00,1,,221
2013-5-16,91,80,68,63,61,57,78,57,31,29.95,29.87,29.82,10,10,2,25,9,41,0.00,0,,275
2013-5-17,84,74,64,64,57,48,94,62,29,30.16,30.07,29.94,10,10,10,10,2,9,0.00,0,,120
2013-5-18,73,66,60,66,62,55,100,89,68,30.21,30.18,30.15,10,7,2,10,4,18,0.75,7,,108
2013-5-19,78,72,66,70,67,64,100,89,69,30.20,30.15,30.10,10,7,1,12,1,24,0.11,6,,142
2013-5-20,80,74,69,72,69,66,94,88,69,30.14,30.09,30.05,10,10,2,13,6,,0.05,4,,185
2013-5-21,84,76,69,72,69,66,94,82,65,30.05,30.00,29.94,10,10,4,9,5,,0.00,5,,204
2013-5-22,87,79,71,70,68,66,88,75,52,30.02,29.97,29.91,10,10,10,14,8,21,0.02,4,,208
2013-5-23,80,73,66,72,68,66,100,86,70,29.98,29.91,29.81,10,9,0,13,8,18,2.80,5,,173
2013-5-24,69,60,51,68,56,37,100,80,52,30.15,29.93,29.77,10,9,1,22,8,30,0.16,4,,322
2013-5-25,69,58,46,48,39,34,88,55,31,30.22,30.17,30.11,10,10,10,17,11,28,0.00,0,,314
2013-5-26,75,60,46,52,43,37,94,60,27,30.26,30.20,30.16,10,10,10,13,5,18,0.00,0,,308
2013-5-27,78,64,51,63,54,48,100,70,36,30.30,30.24,30.19,10,10,10,7,1,,0.00,2,,228
2013-5-28,87,76,64,66,61,55,73,62,48,30.25,30.19,30.13,10,10,10,14,8,20,0.00,2,,195
2013-5-29,89,79,69,66,65,63,83,62,43,30.20,30.17,30.14,10,10,10,14,7,18,0.00,0,,219
2013-5-30,91,80,69,70,66,63,83,65,43,30.26,30.21,30.17,10,10,7,10,5,17,0.00,0,,221
2013-5-31,91,81,71,72,67,63,88,65,40,30.23,30.17,30.09,10,10,10,10,6,16,0.00,0,,203